This demonstration page uses our WeatherBlox Daily Observations layout. Learn more.

Left ArrowRight Arrow

34.16533, -84.80231

Hourly Observations for August 11, 2020

Temp ( °F °C ) Dew Point ( °F °C ) Humidity (%) Winds ( mph kmh ) Pressure ( in mb ) Visibility ( mi km ) Precip ( " mm )
12:53 am 00:53 Clear with Mist and Fog 73 22.8 70 21.1 90 90 Calm 30.01 1016 6 10 0.00 0.00
1:21 am 01:21 Mostly Clear with Mist and Fog 73 22.8 70 21.1 90 90 Calm 30.04 1017 5 8 0.00 0.00
1:53 am 01:53 Partly Cloudy with Mist and Fog 72 22.2 70 21.1 94 94 Calm 30.01 1016 5 8 0.00 0.00
2:53 am 02:53 Clear with Mist and Fog 72 22.2 69 20.6 91 91 Calm 29.99 1016 5 8 0.00 0.00
3:53 am 03:53 Clear with Mist and Fog 73 22.8 70 21.1 90 90 Calm 29.98 1015 5 8 0.00 0.00
4:02 am 04:02 Mostly Clear with Mist and Fog 72 22.2 70 21.1 94 94 Calm 30.00 1016 5 8 0.00 0.00
4:53 am 04:53 Clear with Mist and Fog 72 22.2 69 20.6 91 91 Calm 29.99 1016 5 8 0.00 0.00
5:11 am 05:11 Partly Cloudy with Mist and Fog 71 21.7 69 20.6 94 94 Calm 30.01 1016 5 8 0.00 0.00
5:29 am 05:29 Mostly Cloudy with Mist and Fog 72 22.2 69 20.6 91 91 Calm 30.01 1016 5 8 0.00 0.00
5:46 am 05:46 Partly Cloudy 72 22.2 69 20.6 91 91 Calm 30.00 1016 7 11 0.00 0.00
5:53 am 05:53 Mostly Clear 72 22.2 69 20.6 91 91 Calm 29.99 1016 7 11 0.00 0.00
6:35 am 06:35 Mostly Cloudy with Rain 73 22.8 70 21.1 90 90 S 3 6 30.03 1017 3 4 0.08 2.03
6:43 am 06:43 Cloudy with Heavy Rain 73 22.8 70 21.1 90 90 Calm 30.04 1017 1 2 0.15 3.81
6:48 am 06:48 Cloudy with Light Rain 73 23 70 21 89 89 Calm 30.03 1017 3 5 0.16 4.06
6:53 am 06:53 Cloudy with Light Rain 73 22.8 70 21.1 90 90 Calm 30.02 1017 6 10 0.16 4.06
7:01 am 07:01 Cloudy with Thunderstorms 73 22.8 71 21.7 94 94 Calm 30.04 1017 3 5 0.00 0.00
7:05 am 07:05 Cloudy with Thunderstorms 73 22.8 71 21.7 94 94 Calm 30.04 1017 2 3 0.04 1.02
7:18 am 07:18 Cloudy with Rain 73 22.8 71 21.7 94 94 Calm 30.05 1017 2 2 0.13 3.30
7:29 am 07:29 Cloudy with Nearby Thunderstorms 73 22.8 71 21.7 94 94 VRB 3 6 30.05 1017 1 2 0.18 4.57
7:53 am 07:53 Cloudy with Heavy Rain 73 22.8 71 21.7 94 94 S 3 6 30.03 1017 1 1 0.34 8.64
8:00 am 08:00 Mostly Cloudy with Light Rain 74 23.3 71 21.7 91 91 Calm 30.04 1017 2 3 0.00 0.00
8:08 am 08:08 Mostly Cloudy with Light Rain 74 23.3 71 21.7 91 91 Calm 30.04 1017 4 6 0.01 0.25
8:53 am 08:53 Partly Cloudy with Light Rain 74 23.3 72 22.2 94 94 Calm 30.02 1017 4 6 0.05 1.27
9:53 am 09:53 Mostly Cloudy 76 24.4 72 22.2 88 88 Calm 30.01 1016 7 11 0.01 0.25
10:34 am 10:34 Mostly Cloudy 77 25 73 22.8 88 88 Calm 30.03 1017 8 13 0.00 0.00
10:53 am 10:53 Mostly Sunny 77 25 73 22.8 88 88 Calm 30.02 1017 9 14 0.00 0.00
11:53 am 11:53 Partly Cloudy 82 27.8 73 22.8 74 74 N 5 7 30.04 1017 10 16 0.00 0.00
12:53 pm 12:53 Partly Cloudy 84 28.9 73 22.8 70 70 Calm 30.03 1017 10 16 0.00 0.00
1:53 pm 13:53 Sunny 86 30 73 22.8 65 65 NW 5 7 30.01 1016 10 16 0.00 0.00
2:53 pm 14:53 Sunny 89 31.7 73 22.8 59 59 N 6 9 29.98 1015 10 16 0.00 0.00
3:53 pm 15:53 Mostly Sunny 90 32.2 73 22.8 58 58 VRB 3 6 29.95 1014 10 16 0.00 0.00
4:53 pm 16:53 Sunny 93 33.9 72 22.2 50 50 NE 7 11 29.93 1014 10 16 0.00 0.00
5:53 pm 17:53 Sunny 94 34.4 68 20 43 43 N 9 15 29.92 1013 10 16 0.00 0.00
6:53 pm 18:53 Sunny 91 32.8 69 20.6 49 49 Calm 29.93 1013 10 16 0.00 0.00
7:53 pm 19:53 Sunny 83 28.3 74 23.3 74 74 Calm 29.92 1013 10 16 0.00 0.00
8:53 pm 20:53 Clear 78 25.6 74 23.3 87 87 S 3 6 29.94 1014 10 16 0.00 0.00
9:53 pm 21:53 Clear 77 25 74 23.3 90 90 Calm 29.96 1015 10 16 0.00 0.00
10:53 pm 22:53 Clear 77 25 73 22.8 88 88 Calm 29.97 1015 9 14 0.00 0.00
11:53 pm 23:53 Clear 76 24.4 73 22.8 91 91 Calm 29.98 1015 8 13 0.00 0.00

Powered by AerisWeather